Location: Unspecified
(0.0000°N, 0.0000°E)
Time: 21:12:44
(UTC+00:00)

Kosmos-1429 - Pass Details

Date: 21 February 2024
Orbit: 1466 x 1518 km, 74.0° (Epoch: 21 April)

Event Time Altitude Azimuth Distance (km) Brightness Sun altitude
Rises 20:21:02 0° 317° (NW) 4,650 ? -31.3°
Reaches altitude 10° 20:24:56 10° 302° (WNW) 3,666 ? -32.2°
Maximum altitude 20:31:04 21° 258° (WSW) 2,907 ? -33.7°
Drops below altitude 10° 20:37:13 10° 213° (SSW) 3,650 ? -35.2°
Sets 20:41:10 0° 198° (SSW) 4,624 ? -36.2°
